Year,Month,Day,Hour,Minute,Value (Times are PST for windgust in km/hr)
2020,01,16,00,00,4.80
2020,01,16,00,01,19.30
2020,01,16,00,02,12.90
2020,01,16,00,03,19.30
2020,01,16,00,04,29.00
2020,01,16,00,05,17.70
2020,01,16,00,06,33.80
2020,01,16,00,07,17.70
2020,01,16,00,08,11.30
2020,01,16,00,09,8.10
2020,01,16,00,10,20.90
2020,01,16,00,11,24.20
2020,01,16,00,12,14.50
2020,01,16,00,13,16.10
2020,01,16,00,14,11.30
2020,01,16,00,15,14.50
2020,01,16,00,16,12.90
2020,01,16,00,17,12.90
2020,01,16,00,18,14.50
2020,01,16,00,19,12.90
2020,01,16,00,20,8.10
2020,01,16,00,21,3.20
2020,01,16,00,22,8.10
2020,01,16,00,23,6.40
2020,01,16,00,24,11.30
2020,01,16,00,25,19.30
2020,01,16,00,26,16.10
2020,01,16,00,27,17.70
2020,01,16,00,28,19.30
2020,01,16,00,29,25.70
2020,01,16,00,30,20.90
2020,01,16,00,31,16.10
2020,01,16,00,32,16.10
2020,01,16,00,33,12.90
2020,01,16,00,34,11.30
2020,01,16,00,35,14.50
2020,01,16,00,36,12.90
2020,01,16,00,37,22.50
2020,01,16,00,38,12.90
2020,01,16,00,39,14.50
2020,01,16,00,40,14.50
2020,01,16,00,41,14.50
2020,01,16,00,42,25.70
2020,01,16,00,43,11.30
2020,01,16,00,44,17.70
2020,01,16,00,45,20.90
2020,01,16,00,46,17.70
2020,01,16,00,47,20.90
2020,01,16,00,48,22.50
2020,01,16,00,49,17.70
2020,01,16,00,50,14.50
2020,01,16,00,51,19.30
2020,01,16,00,52,24.20
2020,01,16,00,53,17.70
2020,01,16,00,54,20.90
2020,01,16,00,55,20.90
2020,01,16,00,56,16.10
2020,01,16,00,57,9.60
2020,01,16,00,58,14.50
2020,01,16,00,59,16.10
2020,01,16,01,00,22.50
2020,01,16,01,01,17.70
2020,01,16,01,02,14.50
2020,01,16,01,03,22.50
2020,01,16,01,04,19.30
2020,01,16,01,05,12.90
2020,01,16,01,06,17.70
2020,01,16,01,07,16.10
2020,01,16,01,08,17.70
2020,01,16,01,09,20.90
2020,01,16,01,10,14.50
2020,01,16,01,11,20.90
2020,01,16,01,12,12.90
2020,01,16,01,13,9.60
2020,01,16,01,14,9.60
2020,01,16,01,15,12.90
2020,01,16,01,16,14.50
2020,01,16,01,17,14.50
2020,01,16,01,18,9.60
2020,01,16,01,19,14.50
2020,01,16,01,20,11.30
2020,01,16,01,21,16.10
2020,01,16,01,22,11.30
2020,01,16,01,23,17.70
2020,01,16,01,24,11.30
2020,01,16,01,25,12.90
2020,01,16,01,26,9.60
2020,01,16,01,27,11.30
2020,01,16,01,28,20.90
2020,01,16,01,29,14.50
2020,01,16,01,30,11.30
2020,01,16,01,31,12.90
2020,01,16,01,32,11.30
2020,01,16,01,33,6.40
2020,01,16,01,34,9.60
2020,01,16,01,35,14.50
2020,01,16,01,36,11.30
2020,01,16,01,37,6.40
2020,01,16,01,38,9.60
2020,01,16,01,39,6.40
2020,01,16,01,40,17.70
2020,01,16,01,41,19.30
2020,01,16,01,42,20.90
2020,01,16,01,43,6.40
2020,01,16,01,44,6.40
2020,01,16,01,45,9.60
2020,01,16,01,46,16.10
2020,01,16,01,47,12.90
2020,01,16,01,48,20.90
2020,01,16,01,49,8.10
2020,01,16,01,50,9.60
2020,01,16,01,51,11.30
2020,01,16,01,52,16.10
2020,01,16,01,53,27.40
2020,01,16,01,54,16.10
2020,01,16,01,55,14.50
2020,01,16,01,56,14.50
2020,01,16,01,57,9.60
2020,01,16,01,58,11.30
2020,01,16,01,59,14.50
2020,01,16,02,00,17.70
2020,01,16,02,01,17.70
2020,01,16,02,02,11.30
2020,01,16,02,03,6.40
2020,01,16,02,04,17.70
2020,01,16,02,05,9.60
2020,01,16,02,06,4.80
2020,01,16,02,07,16.10
2020,01,16,02,08,12.90
2020,01,16,02,09,4.80
2020,01,16,02,10,6.40
2020,01,16,02,11,20.90
2020,01,16,02,12,9.60
2020,01,16,02,13,8.10
2020,01,16,02,14,6.40
2020,01,16,02,15,11.30
2020,01,16,02,16,9.60
2020,01,16,02,17,6.40
2020,01,16,02,18,12.90
2020,01,16,02,19,14.50
2020,01,16,02,20,9.60
2020,01,16,02,21,9.60
2020,01,16,02,22,6.40
2020,01,16,02,23,11.30
2020,01,16,02,24,12.90
2020,01,16,02,25,9.60
2020,01,16,02,26,12.90
2020,01,16,02,27,12.90
2020,01,16,02,28,16.10
2020,01,16,02,29,20.90
2020,01,16,02,30,11.30
2020,01,16,02,31,4.80
2020,01,16,02,32,9.60
2020,01,16,02,33,9.60
2020,01,16,02,34,9.60
2020,01,16,02,35,6.40
2020,01,16,02,36,8.10
2020,01,16,02,37,4.80
2020,01,16,02,38,6.40
2020,01,16,02,39,11.30
2020,01,16,02,40,6.40
2020,01,16,02,41,12.90
2020,01,16,02,42,6.40
2020,01,16,02,43,9.60
2020,01,16,02,44,11.30
2020,01,16,02,45,9.60
2020,01,16,02,46,14.50
2020,01,16,02,47,6.40
2020,01,16,02,48,4.80
2020,01,16,02,49,4.80
2020,01,16,02,50,4.80
2020,01,16,02,51,4.80
2020,01,16,02,52,9.60
2020,01,16,02,53,8.10
2020,01,16,02,54,8.10
2020,01,16,02,55,4.80
2020,01,16,02,56,8.10
2020,01,16,02,57,6.40
2020,01,16,02,58,4.80
2020,01,16,02,59,3.20
2020,01,16,03,00,9.60
2020,01,16,03,01,6.40
2020,01,16,03,02,4.80
2020,01,16,03,03,9.60
2020,01,16,03,04,3.20
2020,01,16,03,05,3.20
2020,01,16,03,06,6.40
2020,01,16,03,07,11.30
2020,01,16,03,08,3.20
2020,01,16,03,09,8.10
2020,01,16,03,10,4.80
2020,01,16,03,11,1.60
2020,01,16,03,12,1.60
2020,01,16,03,13,3.20
2020,01,16,03,14,3.20
2020,01,16,03,15,1.60
2020,01,16,03,17,1.60
2020,01,16,03,18,6.40
2020,01,16,03,19,3.20
2020,01,16,03,20,1.60
2020,01,16,03,21,3.20
2020,01,16,03,22,1.60
2020,01,16,03,23,1.60
2020,01,16,03,24,3.20
2020,01,16,03,25,3.20
2020,01,16,03,26,1.60
2020,01,16,03,27,3.20
2020,01,16,03,28,3.20
2020,01,16,03,31,1.60
2020,01,16,03,32,9.60
2020,01,16,03,33,6.40
2020,01,16,03,34,4.80
2020,01,16,03,35,3.20
2020,01,16,03,36,1.60
2020,01,16,03,37,6.40
2020,01,16,03,38,1.60
2020,01,16,03,39,1.60
2020,01,16,03,40,1.60
2020,01,16,03,41,1.60
2020,01,16,03,42,3.20
2020,01,16,03,43,1.60
2020,01,16,03,44,4.80
2020,01,16,03,45,3.20
2020,01,16,03,46,4.80
2020,01,16,03,47,4.80
2020,01,16,03,48,1.60
2020,01,16,03,49,1.60
2020,01,16,03,50,1.60
2020,01,16,03,51,3.20
2020,01,16,03,52,4.80
2020,01,16,03,53,1.60
2020,01,16,03,54,1.60
2020,01,16,03,55,3.20
2020,01,16,03,56,1.60
2020,01,16,03,57,1.60
2020,01,16,03,58,1.60
2020,01,16,03,59,1.60
2020,01,16,04,00,1.60
2020,01,16,04,01,1.60
2020,01,16,04,02,1.60
2020,01,16,04,03,1.60
2020,01,16,04,04,1.60
2020,01,16,04,05,1.60
2020,01,16,04,06,1.60
2020,01,16,04,07,3.20
2020,01,16,04,08,6.40
2020,01,16,04,09,6.40
2020,01,16,04,10,1.60
2020,01,16,04,11,3.20
2020,01,16,04,12,1.60
2020,01,16,04,13,1.60
2020,01,16,04,14,1.60
2020,01,16,04,15,1.60
2020,01,16,04,17,3.20
2020,01,16,04,18,1.60
2020,01,16,04,20,1.60
2020,01,16,04,21,1.60
2020,01,16,04,22,1.60
2020,01,16,04,23,1.60
2020,01,16,04,25,1.60
2020,01,16,04,29,3.20
2020,01,16,04,30,3.20
2020,01,16,04,31,3.20
2020,01,16,04,32,1.60
2020,01,16,04,33,3.20
2020,01,16,04,34,3.20
2020,01,16,04,35,1.60
2020,01,16,04,36,1.60
2020,01,16,04,37,1.60
2020,01,16,04,38,1.60
2020,01,16,04,39,1.60
2020,01,16,04,40,1.60
2020,01,16,04,41,1.60
2020,01,16,04,42,1.60
2020,01,16,04,43,1.60
2020,01,16,04,44,1.60
2020,01,16,04,46,3.20
2020,01,16,04,47,3.20
2020,01,16,04,48,1.60
2020,01,16,04,49,3.20
2020,01,16,04,51,1.60
2020,01,16,04,52,6.40
2020,01,16,04,53,3.20
2020,01,16,04,54,1.60
2020,01,16,04,55,1.60
2020,01,16,04,56,1.60
2020,01,16,04,58,1.60
2020,01,16,04,59,1.60
2020,01,16,05,00,1.60
2020,01,16,05,01,1.60
2020,01,16,05,02,1.60
2020,01,16,05,03,4.80
2020,01,16,05,04,4.80
2020,01,16,05,05,4.80
2020,01,16,05,06,1.60
2020,01,16,05,07,1.60
2020,01,16,05,08,3.20
2020,01,16,05,09,3.20
2020,01,16,05,10,1.60
2020,01,16,05,11,1.60
2020,01,16,05,12,3.20
2020,01,16,05,13,1.60
2020,01,16,05,14,1.60
2020,01,16,05,16,1.60
2020,01,16,05,17,1.60
2020,01,16,05,18,3.20
2020,01,16,05,19,1.60
2020,01,16,05,20,1.60
2020,01,16,05,21,3.20
2020,01,16,05,22,1.60
2020,01,16,05,23,3.20
2020,01,16,05,24,6.40
2020,01,16,05,25,3.20
2020,01,16,05,26,3.20
2020,01,16,05,27,3.20
2020,01,16,05,28,4.80
2020,01,16,05,29,3.20
2020,01,16,05,30,1.60
2020,01,16,05,31,1.60
2020,01,16,05,32,1.60
2020,01,16,05,33,1.60
2020,01,16,05,34,1.60
2020,01,16,05,35,1.60
2020,01,16,05,36,1.60
2020,01,16,05,38,1.60
2020,01,16,05,39,1.60
2020,01,16,05,40,1.60
2020,01,16,05,41,1.60
2020,01,16,06,47,1.60
2020,01,16,08,38,12.90
2020,01,16,08,39,11.30
2020,01,16,08,40,9.60
2020,01,16,08,41,4.80
2020,01,16,08,42,11.30
2020,01,16,08,43,6.40
2020,01,16,08,44,4.80
2020,01,16,08,45,4.80
2020,01,16,08,46,6.40
2020,01,16,08,47,6.40
2020,01,16,08,48,4.80
2020,01,16,08,49,4.80
2020,01,16,08,50,11.30
2020,01,16,08,51,8.10
2020,01,16,08,52,1.60
2020,01,16,08,53,3.20
2020,01,16,08,54,4.80
2020,01,16,08,55,11.30
2020,01,16,08,56,3.20
2020,01,16,08,57,6.40
2020,01,16,08,58,6.40
2020,01,16,08,59,6.40
2020,01,16,09,00,3.20
2020,01,16,09,01,3.20
2020,01,16,09,02,3.20
2020,01,16,09,03,1.60
2020,01,16,09,04,6.40
2020,01,16,09,05,8.10
2020,01,16,09,06,9.60
2020,01,16,09,07,6.40
2020,01,16,09,08,6.40
2020,01,16,09,09,3.20
2020,01,16,09,10,3.20
2020,01,16,09,11,3.20
2020,01,16,09,12,3.20
2020,01,16,09,13,1.60
2020,01,16,09,16,3.20
2020,01,16,09,19,3.20
2020,01,16,09,20,3.20
2020,01,16,09,21,1.60
2020,01,16,09,22,6.40
2020,01,16,09,23,4.80
2020,01,16,09,24,3.20
2020,01,16,09,25,6.40
2020,01,16,09,26,11.30
2020,01,16,09,27,6.40
2020,01,16,09,28,4.80
2020,01,16,09,29,3.20
2020,01,16,09,30,1.60
2020,01,16,09,31,11.30
2020,01,16,09,32,12.90
2020,01,16,09,33,6.40
2020,01,16,09,34,11.30
2020,01,16,09,35,4.80
2020,01,16,09,36,4.80
2020,01,16,09,37,6.40
2020,01,16,09,38,3.20
2020,01,16,09,39,3.20
2020,01,16,09,40,6.40
2020,01,16,09,41,4.80
2020,01,16,09,42,9.60
2020,01,16,09,43,6.40
2020,01,16,09,44,4.80
2020,01,16,09,45,4.80
2020,01,16,09,46,4.80
2020,01,16,09,47,4.80
2020,01,16,09,48,4.80
2020,01,16,09,49,6.40
2020,01,16,09,50,3.20
2020,01,16,09,51,1.60
2020,01,16,09,52,4.80
2020,01,16,09,53,3.20
2020,01,16,09,54,4.80
2020,01,16,09,55,3.20
2020,01,16,09,56,4.80
2020,01,16,09,57,6.40
2020,01,16,09,58,6.40
2020,01,16,09,59,6.40
2020,01,16,10,00,6.40
2020,01,16,10,01,8.10
2020,01,16,10,02,6.40
2020,01,16,10,03,4.80
2020,01,16,10,04,3.20
2020,01,16,10,05,8.10
2020,01,16,10,06,6.40
2020,01,16,10,07,6.40
2020,01,16,10,08,3.20
2020,01,16,10,09,3.20
2020,01,16,10,10,4.80
2020,01,16,10,11,1.60
2020,01,16,10,12,1.60
2020,01,16,10,13,1.60
2020,01,16,10,15,3.20
2020,01,16,10,16,3.20
2020,01,16,10,17,4.80
2020,01,16,10,18,4.80
2020,01,16,10,19,3.20
2020,01,16,10,20,1.60
2020,01,16,10,21,3.20
2020,01,16,10,22,3.20
2020,01,16,10,23,1.60
2020,01,16,10,24,4.80
2020,01,16,10,25,1.60
2020,01,16,10,26,8.10
2020,01,16,10,27,12.90
2020,01,16,10,28,12.90
2020,01,16,10,29,3.20
2020,01,16,10,30,6.40
2020,01,16,10,31,3.20
2020,01,16,10,32,6.40
2020,01,16,10,33,3.20
2020,01,16,10,34,3.20
2020,01,16,10,35,4.80
2020,01,16,10,36,11.30
2020,01,16,10,37,14.50
2020,01,16,10,38,4.80
2020,01,16,10,39,6.40
2020,01,16,10,40,3.20
2020,01,16,10,41,9.60
2020,01,16,10,42,6.40
2020,01,16,10,43,3.20
2020,01,16,10,44,4.80
2020,01,16,10,45,3.20
2020,01,16,10,46,4.80
2020,01,16,10,47,4.80
2020,01,16,10,48,9.60
2020,01,16,10,49,6.40
2020,01,16,10,50,4.80
2020,01,16,10,51,4.80
2020,01,16,10,52,4.80
2020,01,16,10,53,9.60
2020,01,16,10,54,6.40
2020,01,16,10,55,4.80
2020,01,16,10,56,6.40
2020,01,16,10,57,3.20
2020,01,16,10,58,6.40
2020,01,16,10,59,4.80
2020,01,16,11,00,9.60
2020,01,16,11,01,3.20
2020,01,16,11,02,3.20
2020,01,16,11,03,3.20
2020,01,16,11,04,8.10
2020,01,16,11,05,9.60
2020,01,16,11,06,6.40
2020,01,16,11,07,3.20
2020,01,16,11,08,1.60
2020,01,16,11,10,3.20
2020,01,16,11,11,11.30
2020,01,16,11,12,12.90
2020,01,16,11,13,17.70
2020,01,16,11,14,9.60
2020,01,16,11,15,4.80
2020,01,16,11,16,4.80
2020,01,16,11,17,9.60
2020,01,16,11,18,11.30
2020,01,16,11,19,4.80
2020,01,16,11,20,8.10
2020,01,16,11,21,16.10
2020,01,16,11,22,9.60
2020,01,16,11,23,6.40
2020,01,16,11,24,6.40
2020,01,16,11,25,4.80
2020,01,16,11,26,3.20
2020,01,16,11,27,6.40
2020,01,16,11,28,4.80
2020,01,16,11,29,4.80
2020,01,16,11,30,4.80
2020,01,16,11,31,6.40
2020,01,16,11,32,3.20
2020,01,16,11,33,4.80
2020,01,16,11,34,8.10
2020,01,16,11,35,4.80
2020,01,16,11,36,3.20
2020,01,16,11,37,6.40
2020,01,16,11,38,8.10
2020,01,16,11,39,4.80
2020,01,16,11,40,8.10
2020,01,16,11,41,11.30
2020,01,16,11,42,11.30
2020,01,16,11,43,4.80
2020,01,16,11,44,4.80
2020,01,16,11,45,3.20
2020,01,16,11,46,1.60
2020,01,16,11,47,4.80
2020,01,16,11,48,4.80
2020,01,16,11,49,1.60
2020,01,16,11,50,4.80
2020,01,16,11,51,4.80
2020,01,16,11,52,3.20
2020,01,16,11,53,8.10
2020,01,16,11,54,6.40
2020,01,16,11,55,4.80
2020,01,16,11,56,17.70
2020,01,16,11,57,8.10
2020,01,16,11,58,8.10
2020,01,16,11,59,8.10
2020,01,16,12,00,6.40
2020,01,16,12,01,6.40
2020,01,16,12,02,3.20
2020,01,16,12,03,3.20
2020,01,16,12,04,3.20
2020,01,16,12,05,6.40
2020,01,16,12,06,4.80
2020,01,16,12,07,6.40
2020,01,16,12,08,4.80
2020,01,16,12,09,3.20
2020,01,16,12,10,8.10
2020,01,16,12,11,6.40
2020,01,16,12,12,3.20
2020,01,16,12,13,4.80
2020,01,16,12,14,6.40
2020,01,16,12,15,3.20
2020,01,16,12,16,4.80
2020,01,16,12,17,8.10
2020,01,16,12,18,6.40
2020,01,16,12,19,9.60
2020,01,16,12,20,11.30
2020,01,16,12,21,6.40
2020,01,16,12,22,4.80
2020,01,16,12,23,4.80
2020,01,16,12,24,1.60
2020,01,16,12,25,16.10
2020,01,16,12,26,12.90
2020,01,16,12,27,6.40
2020,01,16,12,28,4.80
2020,01,16,12,29,6.40
2020,01,16,12,30,4.80
2020,01,16,12,31,9.60
2020,01,16,12,32,3.20
2020,01,16,12,33,3.20
2020,01,16,12,34,4.80
2020,01,16,12,35,3.20
2020,01,16,12,36,6.40
2020,01,16,12,37,4.80
2020,01,16,12,38,6.40
2020,01,16,12,39,8.10
2020,01,16,12,40,6.40
2020,01,16,12,41,3.20
2020,01,16,12,42,4.80
2020,01,16,12,43,17.70
2020,01,16,12,44,14.50
2020,01,16,12,45,8.10
2020,01,16,12,46,3.20
2020,01,16,12,47,12.90
2020,01,16,12,48,6.40
2020,01,16,12,49,6.40
2020,01,16,12,50,4.80
2020,01,16,12,51,6.40
2020,01,16,12,52,4.80
2020,01,16,12,53,6.40
2020,01,16,12,54,4.80
2020,01,16,12,55,3.20
2020,01,16,12,56,3.20
2020,01,16,12,57,4.80
2020,01,16,12,58,4.80
2020,01,16,12,59,4.80
2020,01,16,13,00,8.10
2020,01,16,13,01,4.80
2020,01,16,13,02,8.10
2020,01,16,13,03,14.50
2020,01,16,13,04,8.10
2020,01,16,13,05,8.10
2020,01,16,13,06,6.40
2020,01,16,13,07,6.40
2020,01,16,13,08,4.80
2020,01,16,13,09,6.40
2020,01,16,13,10,6.40
2020,01,16,13,11,6.40
2020,01,16,13,12,11.30
2020,01,16,13,13,8.10
2020,01,16,13,14,12.90
2020,01,16,13,15,6.40
2020,01,16,13,16,6.40
2020,01,16,13,17,6.40
2020,01,16,13,18,8.10
2020,01,16,13,19,8.10
2020,01,16,13,20,4.80
2020,01,16,13,21,4.80
2020,01,16,13,22,6.40
2020,01,16,13,23,8.10
2020,01,16,13,24,4.80
2020,01,16,13,25,9.60
2020,01,16,13,26,6.40
2020,01,16,13,27,11.30
2020,01,16,13,28,6.40
2020,01,16,13,29,8.10
2020,01,16,13,30,9.60
2020,01,16,13,31,3.20
2020,01,16,13,32,3.20
2020,01,16,13,33,8.10
2020,01,16,13,34,4.80
2020,01,16,13,35,4.80
2020,01,16,13,36,6.40
2020,01,16,13,37,12.90
2020,01,16,13,38,17.70
2020,01,16,13,39,16.10
2020,01,16,13,40,4.80
2020,01,16,13,41,4.80
2020,01,16,13,42,4.80
2020,01,16,13,43,8.10
2020,01,16,13,44,14.50
2020,01,16,13,45,9.60
2020,01,16,13,46,9.60
2020,01,16,13,47,9.60
2020,01,16,13,48,8.10
2020,01,16,13,49,8.10
2020,01,16,13,50,12.90
2020,01,16,13,51,6.40
2020,01,16,13,52,6.40
2020,01,16,13,53,3.20
2020,01,16,13,54,14.50
2020,01,16,13,55,9.60
2020,01,16,13,56,8.10
2020,01,16,13,57,8.10
2020,01,16,13,58,6.40
2020,01,16,13,59,4.80
2020,01,16,14,00,6.40
2020,01,16,14,01,9.60
2020,01,16,14,02,8.10
2020,01,16,14,03,8.10
2020,01,16,14,04,9.60
2020,01,16,14,05,6.40
2020,01,16,14,06,6.40
2020,01,16,14,07,4.80
2020,01,16,14,08,4.80
2020,01,16,14,09,6.40
2020,01,16,14,10,11.30
2020,01,16,14,11,14.50
2020,01,16,14,12,9.60
2020,01,16,14,13,8.10
2020,01,16,14,14,3.20
2020,01,16,14,15,6.40
2020,01,16,14,16,4.80
2020,01,16,14,17,3.20
2020,01,16,14,18,9.60
2020,01,16,14,19,3.20
2020,01,16,14,20,9.60
2020,01,16,14,21,4.80
2020,01,16,14,22,8.10
2020,01,16,14,23,9.60
2020,01,16,14,24,16.10
2020,01,16,14,25,3.20
2020,01,16,14,26,9.60
2020,01,16,14,27,3.20
2020,01,16,14,28,3.20
2020,01,16,14,29,3.20
2020,01,16,14,30,3.20
2020,01,16,14,31,3.20
2020,01,16,14,32,9.60
2020,01,16,14,33,4.80
2020,01,16,14,34,6.40
2020,01,16,14,35,6.40
2020,01,16,14,36,4.80
2020,01,16,14,37,3.20
2020,01,16,14,38,3.20
2020,01,16,14,39,4.80
2020,01,16,14,40,6.40
2020,01,16,14,41,4.80
2020,01,16,14,42,3.20
2020,01,16,14,43,3.20
2020,01,16,14,44,1.60
2020,01,16,14,45,3.20
2020,01,16,14,46,6.40
2020,01,16,14,47,3.20
2020,01,16,14,48,4.80
2020,01,16,14,49,4.80
2020,01,16,14,50,8.10
2020,01,16,14,51,3.20
2020,01,16,14,52,9.60
2020,01,16,14,53,4.80
2020,01,16,14,54,4.80
2020,01,16,14,55,4.80
2020,01,16,14,56,3.20
2020,01,16,14,57,1.60
2020,01,16,14,58,3.20
2020,01,16,14,59,6.40
2020,01,16,15,00,4.80
2020,01,16,15,01,3.20
2020,01,16,15,02,3.20
2020,01,16,15,03,3.20
2020,01,16,15,04,4.80
2020,01,16,15,05,4.80
2020,01,16,15,06,3.20
2020,01,16,15,07,3.20
2020,01,16,15,08,3.20
2020,01,16,15,09,3.20
2020,01,16,15,10,1.60
2020,01,16,15,11,4.80
2020,01,16,15,12,1.60
2020,01,16,15,13,1.60
2020,01,16,15,14,1.60
2020,01,16,15,15,1.60
2020,01,16,15,16,1.60
2020,01,16,15,17,9.60
2020,01,16,15,18,3.20
2020,01,16,15,19,1.60
2020,01,16,15,20,1.60
2020,01,16,15,21,1.60
2020,01,16,15,22,12.90
2020,01,16,15,23,9.60
2020,01,16,15,24,3.20
2020,01,16,15,25,1.60
2020,01,16,15,26,4.80
2020,01,16,15,27,1.60
2020,01,16,15,30,3.20
2020,01,16,15,31,3.20
2020,01,16,15,32,3.20
2020,01,16,15,33,3.20
2020,01,16,15,34,3.20
2020,01,16,15,35,1.60
2020,01,16,15,36,3.20
2020,01,16,15,37,3.20
2020,01,16,15,38,1.60
2020,01,16,15,39,1.60
2020,01,16,15,40,4.80
2020,01,16,15,41,4.80
2020,01,16,15,42,3.20
2020,01,16,15,43,1.60
2020,01,16,15,45,1.60
2020,01,16,15,46,1.60
2020,01,16,15,47,1.60
2020,01,16,15,48,1.60
2020,01,16,15,49,1.60
2020,01,16,15,50,1.60
2020,01,16,15,51,1.60
2020,01,16,15,52,1.60
2020,01,16,15,53,1.60
2020,01,16,15,54,3.20
2020,01,16,15,55,1.60
2020,01,16,15,56,1.60
2020,01,16,15,58,1.60
2020,01,16,15,59,3.20
2020,01,16,16,00,1.60
2020,01,16,16,01,1.60
2020,01,16,16,02,1.60
2020,01,16,16,03,1.60
2020,01,16,16,04,1.60
2020,01,16,16,05,1.60
2020,01,16,16,06,1.60
2020,01,16,16,07,1.60
2020,01,16,16,08,1.60
2020,01,16,16,09,3.20
2020,01,16,16,10,3.20
2020,01,16,16,11,1.60
2020,01,16,16,12,3.20
2020,01,16,16,18,3.20
2020,01,16,16,19,1.60
2020,01,16,16,20,3.20
2020,01,16,16,21,1.60
2020,01,16,16,22,1.60
2020,01,16,16,23,1.60
2020,01,16,16,25,1.60
2020,01,16,16,26,3.20
2020,01,16,16,27,3.20
2020,01,16,16,28,1.60
2020,01,16,16,29,1.60
2020,01,16,16,30,1.60
2020,01,16,16,31,1.60
2020,01,16,16,32,1.60
2020,01,16,16,33,1.60
2020,01,16,16,34,1.60
2020,01,16,16,35,3.20
2020,01,16,16,36,3.20
2020,01,16,16,37,3.20
2020,01,16,16,38,3.20
2020,01,16,16,39,1.60
2020,01,16,16,40,1.60
2020,01,16,16,41,3.20
2020,01,16,16,42,1.60
2020,01,16,16,43,1.60
2020,01,16,16,44,3.20
2020,01,16,16,45,3.20
2020,01,16,16,46,3.20
2020,01,16,16,47,1.60
2020,01,16,16,48,1.60
2020,01,16,16,49,1.60
2020,01,16,16,50,3.20
2020,01,16,16,51,3.20
2020,01,16,16,52,1.60
2020,01,16,16,53,3.20
2020,01,16,16,54,3.20
2020,01,16,16,55,1.60
2020,01,16,16,56,3.20
2020,01,16,16,57,3.20
2020,01,16,16,58,1.60
2020,01,16,16,59,3.20
2020,01,16,17,00,1.60
2020,01,16,17,01,1.60
2020,01,16,17,02,1.60
2020,01,16,17,03,1.60
2020,01,16,17,04,1.60
2020,01,16,17,05,3.20
2020,01,16,17,06,1.60
2020,01,16,17,07,3.20
2020,01,16,17,08,1.60
2020,01,16,17,09,1.60
2020,01,16,17,10,1.60
2020,01,16,17,11,1.60
2020,01,16,17,12,3.20
2020,01,16,17,13,3.20
2020,01,16,17,14,3.20
2020,01,16,17,15,1.60
2020,01,16,17,16,1.60
2020,01,16,17,17,1.60
2020,01,16,17,18,3.20
2020,01,16,17,19,3.20
2020,01,16,17,20,1.60
2020,01,16,17,21,1.60
2020,01,16,17,22,3.20
2020,01,16,17,23,1.60
2020,01,16,17,24,1.60
2020,01,16,17,25,3.20
2020,01,16,17,26,1.60
2020,01,16,17,27,1.60
2020,01,16,17,28,1.60
2020,01,16,17,29,1.60
2020,01,16,17,30,3.20
2020,01,16,17,31,1.60
2020,01,16,17,32,1.60
2020,01,16,17,33,1.60
2020,01,16,17,34,1.60
2020,01,16,17,35,3.20
2020,01,16,17,36,3.20
2020,01,16,17,51,1.60
2020,01,16,17,52,1.60
2020,01,16,17,53,3.20
2020,01,16,17,54,3.20
2020,01,16,17,55,3.20
2020,01,16,17,56,3.20
2020,01,16,17,57,3.20
2020,01,16,17,58,3.20
2020,01,16,17,59,1.60
2020,01,16,18,00,1.60
2020,01,16,18,01,1.60
2020,01,16,18,02,1.60
2020,01,16,18,03,1.60
2020,01,16,18,04,3.20
2020,01,16,18,05,1.60
2020,01,16,18,06,1.60
2020,01,16,18,07,1.60
2020,01,16,18,08,1.60
2020,01,16,18,09,3.20
2020,01,16,18,10,1.60
2020,01,16,18,11,1.60
2020,01,16,18,12,1.60
2020,01,16,18,13,1.60
2020,01,16,18,14,3.20
2020,01,16,18,15,1.60
2020,01,16,18,16,1.60
2020,01,16,18,18,1.60
2020,01,16,18,19,1.60
2020,01,16,18,20,1.60
2020,01,16,18,22,1.60
2020,01,16,18,23,1.60
2020,01,16,18,24,3.20
2020,01,16,18,25,3.20
2020,01,16,18,26,3.20
2020,01,16,18,27,1.60
2020,01,16,18,28,1.60
2020,01,16,18,29,3.20
2020,01,16,18,30,3.20
2020,01,16,18,31,3.20
2020,01,16,18,32,1.60
2020,01,16,18,33,3.20
2020,01,16,18,34,1.60
2020,01,16,18,35,1.60
2020,01,16,18,36,3.20
2020,01,16,18,37,1.60
2020,01,16,18,38,3.20
2020,01,16,18,39,3.20
2020,01,16,18,40,1.60
2020,01,16,18,41,3.20
2020,01,16,18,42,3.20
2020,01,16,18,43,3.20
2020,01,16,18,44,3.20
2020,01,16,18,45,3.20
2020,01,16,18,46,3.20
2020,01,16,18,47,1.60
2020,01,16,18,48,1.60
2020,01,16,18,49,3.20
2020,01,16,18,50,3.20
2020,01,16,18,51,3.20
2020,01,16,18,52,3.20
2020,01,16,18,53,3.20
2020,01,16,18,54,3.20
2020,01,16,18,55,3.20
2020,01,16,18,56,3.20
2020,01,16,18,57,3.20
2020,01,16,18,58,3.20
2020,01,16,18,59,3.20
2020,01,16,19,00,3.20
2020,01,16,19,01,3.20
2020,01,16,19,02,3.20
2020,01,16,19,03,3.20
2020,01,16,19,04,3.20
2020,01,16,19,05,3.20
2020,01,16,19,06,3.20
2020,01,16,19,07,3.20
2020,01,16,19,08,3.20
2020,01,16,19,09,3.20
2020,01,16,19,10,3.20
2020,01,16,19,11,3.20
2020,01,16,19,12,3.20
2020,01,16,19,13,3.20
2020,01,16,19,14,3.20
2020,01,16,19,15,1.60
2020,01,16,19,16,3.20
2020,01,16,19,17,3.20
2020,01,16,19,18,3.20
2020,01,16,19,19,3.20
2020,01,16,19,20,3.20
2020,01,16,19,21,3.20
2020,01,16,19,22,3.20
2020,01,16,19,23,1.60
2020,01,16,19,24,1.60
2020,01,16,19,25,1.60
2020,01,16,19,26,1.60
2020,01,16,19,27,1.60
2020,01,16,19,29,1.60
2020,01,16,19,30,1.60
2020,01,16,19,31,1.60
2020,01,16,19,32,1.60
2020,01,16,19,36,1.60
2020,01,16,19,37,1.60
2020,01,16,19,38,1.60
2020,01,16,19,39,1.60
2020,01,16,19,40,1.60
2020,01,16,19,41,3.20
2020,01,16,19,42,1.60
2020,01,16,20,28,3.20
2020,01,16,20,29,3.20
2020,01,16,20,30,3.20
2020,01,16,20,31,3.20
2020,01,16,20,32,3.20
2020,01,16,20,33,1.60
2020,01,16,20,34,3.20
2020,01,16,20,35,1.60
2020,01,16,20,36,3.20
2020,01,16,20,37,3.20
2020,01,16,20,38,3.20
2020,01,16,20,39,3.20
2020,01,16,20,40,3.20
2020,01,16,20,41,3.20
2020,01,16,20,42,3.20
2020,01,16,20,43,3.20
2020,01,16,20,44,3.20
2020,01,16,20,45,3.20
2020,01,16,20,46,3.20
2020,01,16,20,47,3.20
2020,01,16,20,48,3.20
2020,01,16,20,49,3.20
2020,01,16,20,50,3.20
2020,01,16,20,51,3.20
2020,01,16,20,52,1.60
2020,01,16,20,53,3.20
2020,01,16,20,54,3.20
2020,01,16,20,55,3.20
2020,01,16,20,56,1.60
2020,01,16,20,57,1.60
2020,01,16,20,58,3.20
2020,01,16,20,59,3.20
2020,01,16,21,00,3.20
2020,01,16,21,01,3.20
2020,01,16,21,02,3.20
2020,01,16,21,03,3.20
2020,01,16,21,04,3.20
2020,01,16,21,05,3.20
2020,01,16,21,06,1.60
2020,01,16,21,07,3.20
2020,01,16,21,08,3.20
2020,01,16,21,09,1.60
2020,01,16,21,10,1.60
2020,01,16,21,11,1.60
2020,01,16,21,12,3.20
2020,01,16,21,13,3.20
2020,01,16,21,14,3.20
2020,01,16,21,15,3.20
2020,01,16,21,16,1.60
2020,01,16,21,17,3.20
2020,01,16,21,18,3.20
2020,01,16,21,19,3.20
2020,01,16,21,20,3.20
2020,01,16,21,21,1.60
2020,01,16,21,22,3.20
2020,01,16,21,23,1.60
2020,01,16,21,24,3.20
2020,01,16,21,25,1.60
2020,01,16,21,26,1.60
2020,01,16,21,27,1.60
2020,01,16,21,28,1.60
2020,01,16,21,29,1.60
2020,01,16,21,30,1.60
2020,01,16,21,31,1.60
2020,01,16,21,32,1.60
2020,01,16,21,33,1.60
2020,01,16,21,34,1.60
2020,01,16,21,35,1.60
2020,01,16,21,37,1.60
2020,01,16,21,38,1.60
2020,01,16,21,39,1.60
2020,01,16,21,40,1.60
2020,01,16,21,41,1.60
2020,01,16,21,42,1.60
2020,01,16,21,43,1.60
2020,01,16,21,44,1.60
2020,01,16,21,45,1.60
2020,01,16,21,46,1.60
2020,01,16,21,49,1.60
2020,01,16,21,50,1.60
2020,01,16,21,52,1.60
2020,01,16,21,53,1.60
2020,01,16,21,54,1.60
2020,01,16,21,55,1.60
2020,01,16,21,56,1.60
2020,01,16,21,57,1.60
2020,01,16,21,58,1.60
2020,01,16,21,59,1.60
2020,01,16,22,00,1.60
2020,01,16,22,01,1.60
2020,01,16,22,02,1.60
2020,01,16,22,03,3.20
2020,01,16,22,04,1.60
2020,01,16,22,05,1.60
2020,01,16,22,06,1.60
2020,01,16,22,07,1.60
2020,01,16,22,08,1.60
2020,01,16,22,09,1.60
2020,01,16,22,10,1.60
2020,01,16,22,11,1.60
2020,01,16,22,12,1.60
2020,01,16,22,13,1.60
2020,01,16,22,14,1.60
2020,01,16,22,15,1.60
2020,01,16,22,16,1.60
2020,01,16,22,17,1.60
2020,01,16,22,18,1.60
2020,01,16,22,19,1.60
2020,01,16,22,20,1.60
2020,01,16,22,22,1.60
2020,01,16,22,23,1.60
2020,01,16,22,24,3.20
2020,01,16,22,25,3.20
2020,01,16,22,26,1.60
2020,01,16,22,27,1.60
2020,01,16,22,28,1.60
2020,01,16,22,29,1.60
2020,01,16,22,33,1.60
2020,01,16,22,36,1.60
2020,01,16,22,37,1.60
2020,01,16,22,38,1.60
2020,01,16,22,39,1.60